COSMOS 1275 DEB, 15766

Orbit data source: Space-Track

COSMOS 1275 DEB, 15766 is space debris in LEO originally from a launch on Thu, 04 Jun 1981 UTC launched from the Plesetsk Missile And Space Complex (PKMTR). Debris objects in space refer to the collection of defunct objects orbiting the Earth. Examples of debris include non-operational satellites, rocket bodies, and fragments generated from explosions, collisions, or faulty payload assembly.

Loading next visibility...
Identifier
15766, 1981-053KB
Orbit
LEO
Country
Flag of CISCIS
Related business
Manufacturer
Unknown
Mission
Spacecraft
Bus & Motor
Unknown
Mass
Unknown
Launch date (UTC)
1981-06-04 (45 years ago)
Launch vehicle
Unknown
Launch site
Plesetsk Missile And Space Complex (PKMTR)
Object type
Payload
Rocket body
Debris
Shape & HBR
Unknown shape, 0.1 m
Radar Cross Section
Small (<0.1 m²)

Expand to show TLE details & history
Last TLE update: 16 hours ago

TLE from 16 hours ago
0 COSMOS 1275 DEB
1 15766U 81053KB  26036.97674328  .00009646  00000-0  26995-2 0  9993
2 15766  82.9331  43.4767 0003418 258.6298 101.4514 14.46044578 95171
Epoch: 2026-02-05T23:26Z
TLE epoch observation values (Epoch: 2026-02-05T23:26:30.619Z)
Latitude
0.00001°
Longitude
-84.27212°
Altitude
742.079 km
Speed
7.484 km/s
True Right ascension
02h 53m 54s
True Declination
0° 00' 00"
Sunlit
Object was in daylight at epoch
Visualization orbit readout
Latitude
Unknown
Longitude
Unknown
Altitude
Unknown
Speed
Unknown
Apparent Right ascension
Unknown
Apparent Declination
Unknown
Sunlit
N/A
Visualization observer readout
Local Sidereal Time
18:02:45
Azimuth
Unknown
Elevation
Unknown
Doppler factor
Unknown
Orbital elements
Apogee altitude
738.08 km
Perigee altitude
733.217 km
Semi-major axis
7,113.785 km
Eccentricity
0.00034
Inclination
82.9331°
RAAN
43.4767°
Arg. of periapsis
258.6298°
True anomaly
101.48978°
Mean anomaly
101.4514°
Eccentric anomaly
101.47059°
Mean motion
3.61736 °/min
Orbital period
99.52 mins
BSTAR
0.0026995
Loading maneuver chart data...
Computing Atmospheric mass density...
Loading historical data...
Loading historical data...
Loading historical data...
Loading historical data...
Loading historical data...
Loading historical data...
Loading historical data...

Documentation

Showing up to 5 results
|